Find Starlink 32507

NORAD ID: 62132 Int'l Des: 2024-222 Owner: SPXS Country: US Constellation: starlink operational
LEOCIRCULAR

現在のビュー

3D地球を読み込み中...

About Starlink 32507

Starlink 32507 (NORAD 62132) is a starlink constellation satellite (v2 mini) launched Nov 27, 2024 by SPXS of US. It operates in LEO, CIRCULAR orbit with a mass of 730.00 kg.

次回通過

Passes for default location (London). Set your location on the main map for personalized predictions.

高度履歴

Loading altitude history...

軌道要素

1 62132U 24222U 26252.16306377 .00039283 00000-0 14295-2 0 9994
2 62132 42.9990 179.6066 0001201 253.1412 106.9308 15.27580238100667
Epoch: Sep 9, 2026 • Age: 36 hours

現在のステータス

高度 492.7 km
遠地点 / 近地点 N/A
速度 7.62 km/s
衛星直下点 -36.71°S, 107.29°W
打ち上げ日 Nov 27, 2024
運用期間 1.7 years
タイプ internet

技術仕様

分類 Payload
質量 730.00 kg
乾燥質量 700.00 kg
総質量 730.00 kg
長さ 0.30 m
直径 4.10 m
スパン 29.00 m
形状 Box + pan
製造者 SPXS
バスタイプ Starlink V2M
フェーズステータス In Orbit
所有者/国 SPXS/US

Most Searched